[Iaude] MPEC S75: 2016 ST2 [a=1.14,e=0.07,i=3.5,H=24.7]

mpec at si.edu mpec at si.edu
Thu Sep 29 15:19:20 EDT 2016


M.P.E.C. 2016-S75                                Issued 2016 Sept. 27, 21:20 UT
 
     The Minor Planet Electronic Circulars contain information on unusual
         minor planets and routine data on comets.  They are published
    on behalf of Division F of the International Astronomical Union by the
          Minor Planet Center, Smithsonian Astrophysical Observatory,
                          Cambridge, MA 02138, U.S.A.

             Prepared using the Tamkin Foundation Computer Network

                              MPC at CFA.HARVARD.EDU
            URL http://www.minorplanetcenter.net/    ISSN 1523-6714


                                   2016 ST2
 
Observations:
     K16S02T* C2016 09 25.48127 01 14 35.203-25 20 39.14         21.7 wLES075F51
     K16S02T  C2016 09 25.49186 01 14 33.539-25 20 31.54         21.4 wLES075F51
     K16S02T  C2016 09 25.50247 01 14 31.828-25 20 23.67         21.5 wLES075F51
     K16S02T _C2016 09 26.46613801 12 27.781-25 08 31.31         21.8 GUES075568
     K16S02T _C2016 09 26.46718401 12 27.613-25 08 30.58         21.7 GUES075568
     K16S02T _C2016 09 26.46823001 12 27.444-25 08 29.80         21.8 GUES075568
     K16S02T KC2016 09 27.32828001 10 33.22 -24 56 13.9          21.4 RtES075W86
     K16S02T KC2016 09 27.33607001 10 32.04 -24 56 06.8          21.5 RtES075W86
     K16S02T KC2016 09 27.34386101 10 30.86 -24 55 59.7          21.5 RtES075W86
 
Observer details:
568 Mauna Kea.  Observers R. J. Wainscoat, P. Forshay.  Measurers M. Micheli,
    R. J. Wainscoat.  3.6-m Canada-France-Hawaii Telescope + CCD.
F51 Pan-STARRS 1, Haleakala.  Observers B. Gibson, T. Goggia, S. Kahale,
    A. Schultz, M. Willman.  Measurers K. Chambers, S. Chastel, L. Denneau,
    H. Flewelling, M. Huber, E. Lilly, E. Magnier, R. Wainscoat, C. Waters,
    R. Weryk.  1.8-m Ritchey-Chretien + CCD.
W86 Cerro Tololo-LCOGT B.  Observers T. Lister, S. Greenstreet, E. Gomez.
    Measurer T. Lister.  1.0-m f/8 Ritchey-Chretien + CCD.
 
Orbital elements:
2016 ST2                                                 Earth MOID = 0.0494 AU
Epoch 2016 July 31.0 TT = JDT 2457600.5                 MPC
M  20.77427              (2000.0)            P               Q
n   0.81122108     Peri.  214.84667     +0.32006097     +0.94562700
a   1.1386141      Node    73.88027     -0.85495114     +0.31461458
e   0.0700268      Incl.    3.45433     -0.40819055     +0.08250608
P   1.21           H   24.7           G   0.15           U   7
Residuals in seconds of arc
160925 F51  0.2-  0.1+    160926 568  0.0   0.0     160927 W86  0.0   0.0
160925 F51  0.2+  0.0     160926 568  0.0   0.1-    160927 W86  0.1+  0.1+
160925 F51  0.0   0.0     160926 568  0.1-  0.1-    160927 W86  0.0   0.1+

Ephemeris:
2016 ST2                 a,e,i = 1.14, 0.07, 3                   q = 1.0589
Date    TT    R. A. (2000) Decl.     Delta      r     Elong.  Phase     V
2016 08 28    01 55 02.6 -26 06 37   0.1128  1.0836   128.2    47.1    21.9
...
2016 09 12    01 40 44.8 -26 45 54   0.1161  1.0976   139.7    36.3    21.7
...
2016 09 20    01 26 07.7 -26 12 13   0.1203  1.1059   145.8    30.7    21.6
...
2016 09 26    01 13 28.3 -25 13 33   0.1251  1.1123   149.6    27.2    21.6
2016 09 27    01 11 18.5 -25 00 48   0.1261  1.1134   150.1    26.7    21.6
2016 09 28    01 09 08.8 -24 47 12   0.1271  1.1145   150.5    26.3    21.6
...
2016 10 04    00 56 31.9 -23 08 18   0.1345  1.1211   152.2    24.6    21.7
...
2016 10 12    00 42 08.3 -20 17 19   0.1478  1.1301   151.5    24.9    22.0
...
2016 10 27    00 26 50.6 -13 54 26   0.1835  1.1469   143.7    30.9    22.6

A. U. Tomatic                (C) Copyright 2016 MPC           M.P.E.C. 2016-S75




More information about the Iaude mailing list